QPF
0.00 0.00 0.00 0.00 0.00 0.00 0.00 0.00 0.01 0.00 0.00 0.00 0.00 0.00 0.00 0.00 0.00 0.00 0.00 0.00 0.00 0.01 0.01 0.01 0.01 0.02 0.02 0.02 0.02 0.03 0.07 0.09 0.10 0.05 0.05 0.03 0.03 0.01 0.00 0.00 0.00 0.00 0.00 0.00
0.00 0.00 0.00 0.00 0.00 0.00 0.00 0.00 0.00 0.00 0.00 0.00 0.02 0.01 0.00 0.01 0.01 0.00 0.00 0.00 0.00 0.00 0.00 0.00 0.00 0.00 0.00 0.00 0.00 0.00 0.02 0.03 0.02 0.03 0.04 0.03 0.06 0.09 0.03 0.01 0.01 0.00 0.00 0.00
0.00 0.00 0.00 0.00 0.00 0.00 0.00 0.00 0.00 0.00 0.00 0.01 0.02 0.01 0.01 0.02 0.02 0.00 0.00 0.00 0.00 0.00 0.00 0.00 0.00 0.00 0.00 0.00 0.00 0.00 0.00 0.00 0.00 0.00 0.01 0.01 0.04 0.04 0.03 0.05 0.05 0.02 0.02 0.02
0.00 0.00 0.00 0.00 0.00 0.00 0.00 0.00 0.00 0.00 0.02 0.01 0.00 0.00 0.00 0.01 0.00 0.00 0.00 0.00 0.00 0.00 0.00 0.00 0.00 0.00 0.00 0.00 0.00 0.00 0.00 0.00 0.00 0.00 0.00 0.00 0.00 0.01 0.02 0.04 0.03 0.03 0.02 0.04
0.00 0.00 0.00 0.00 0.00 0.00 0.00 0.00 0.00 0.00 0.02 0.01 0.00 0.00 0.00 0.00 0.00 0.00 0.00 0.00 0.00 0.00 0.00 0.00 0.00 0.00 0.00 0.00 0.00 0.00 0.00 0.00 0.00 0.00 0.00 0.00 0.00 0.00 0.01 0.01 0.00 0.00 0.01 0.05
0.00 0.00 0.00 0.00 0.00 0.00 0.00 0.00 0.00 0.00 0.00 0.00 0.01 0.00 0.00 0.00 0.00 0.00 0.00 0.00 0.00 0.00 0.00 0.00 0.00 0.00 0.00 0.00 0.00 0.00 0.00 0.00 0.00 0.00 0.00 0.00 0.00 0.00 0.00 0.00 0.00 0.00 0.00 0.01
0.00 0.00 0.00 0.00 0.00 0.00 0.00 0.00 0.00 0.03 0.01 0.01 0.00 0.01 0.00 0.00 0.00 0.00 0.00 0.00 0.00 0.00 0.00 0.00 0.00 0.00 0.00 0.00 0.00 0.00 0.00 0.00 0.00 0.00 0.00 0.00 0.00 0.00 0.00 0.00 0.00 0.00 0.01 0.01
0.00 0.00 0.00 0.00 0.00 0.01 0.00 0.00 0.02 0.04 0.04 0.02 0.00 0.00 0.00 0.00 0.00 0.00 0.00 0.00 0.00 0.00 0.00 0.00 0.00 0.00 0.00 0.00 0.00 0.00 0.00 0.00 0.00 0.00 0.00 0.00 0.00 0.00 0.00 0.00 0.00 0.00 0.00 0.00
0.00 0.00 0.00 0.00 0.00 0.00 0.01 0.02 0.02 0.02 0.02 0.01 0.00 0.00 0.00 0.00 0.00 0.00 0.00 0.00 0.00 0.00 0.00 0.00 0.00 0.00 0.00 0.00 0.00 0.00 0.00 0.00 0.00 0.00 0.00 0.00 0.00 0.00 0.00 0.00 0.00 0.00 0.00 0.00
0.01 0.01 0.00 0.01 0.01 0.02 0.01 0.01 0.01 0.01 0.01 0.00 0.00 0.00 0.00 0.00 0.00 0.00 0.00 0.00 0.00 0.00 0.00 0.00 0.00 0.00 0.00 0.00 0.00 0.00 0.00 0.00 0.00 0.00 0.00 0.00 0.00 0.00 0.00 0.00 0.00 0.00 0.00 0.00
0.00 0.00 0.00 0.00 0.01 0.00 0.00 0.00 0.00 0.00 0.00 0.00 0.00 0.00 0.00 0.00 0.00 0.00 0.00 0.00 0.00 0.00 0.00 0.00 0.00 0.00 0.00 0.00 0.00 0.00 0.00 0.00 0.00 0.00 0.00 0.00 0.00 0.00 0.00 0.00 0.00 0.00 0.00 0.00
0.00 0.00 0.00 0.00 0.00 0.00 0.00 0.00 0.00 0.00 0.00 0.00 0.00 0.00 0.00 0.00 0.00 0.00 0.00 0.00 0.00 0.00 0.00 0.00 0.00 0.00 0.00 0.00 0.00 0.00 0.00 0.00 0.00 0.00 0.00 0.00 0.00 0.00 0.00 0.00 0.00 0.00 0.00 0.00
0.00 0.00 0.00 0.00 0.00 0.00 0.00 0.00 0.00 0.00 0.00 0.00 0.00 0.00 0.00 0.00 0.00 0.00 0.00 0.00 0.00 0.00 0.00 0.00 0.00 0.00 0.00 0.00 0.00 0.00 0.00 0.00 0.00 0.00 0.00 0.00 0.00 0.00 0.00 0.00 0.00 0.00 0.00 0.00
0.00 0.00 0.00 0.00 0.00 0.00 0.00 0.00 0.00 0.00 0.00 0.00 0.00 0.00 0.00 0.00 0.00 0.00 0.00 0.00 0.00 0.00 0.00 0.00 0.00 0.00 0.00 0.00 0.00 0.00 0.00 0.00 0.00 0.00 0.00 0.00 0.00 0.00 0.00 0.00 0.00 0.00 0.00 0.00
0.00 0.00 0.00 0.00 0.00 0.00 0.00 0.00 0.00 0.00 0.00 0.00 0.00 0.00 0.00 0.00 0.00 0.00 0.00 0.00 0.00 0.00 0.00 0.00 0.00 0.00 0.00 0.00 0.00 0.00 0.00 0.00 0.00 0.00 0.00 0.00 0.00 0.00 0.00 0.00 0.00 0.00 0.00 0.00
0.00 0.00 0.00 0.00 0.00 0.00 0.00 0.00 0.00 0.00 0.00 0.00 0.00 0.00 0.00 0.00 0.00 0.00 0.00 0.00 0.00 0.00 0.00 0.00 0.00 0.00 0.00 0.00 0.00 0.00 0.00 0.00 0.00 0.00 0.00 0.00 0.00 0.00 0.00 0.00 0.00 0.00 0.00 0.00
0.00 0.00 0.00 0.00 0.00 0.00 0.00 0.00 0.00 0.00 0.00 0.00 0.00 0.00 0.00 0.00 0.00 0.00 0.00 0.00 0.00 0.00 0.00 0.00 0.00 0.00 0.00 0.00 0.00 0.00 0.00 0.00 0.00 0.00 0.00 0.00 0.00 0.00 0.00 0.00 0.00 0.00 0.00 0.00
0.00 0.00 0.00 0.00 0.00 0.00 0.00 0.00 0.00 0.00 0.00 0.00 0.00 0.00 0.00 0.00 0.00 0.00 0.00 0.00 0.00 0.00 0.00 0.00 0.00 0.00 0.00 0.00 0.00 0.00 0.00 0.00 0.00 0.00 0.00 0.00 0.00 0.00 0.00 0.00 0.00 0.00 0.00 0.00
0.00 0.00 0.00 0.00 0.00 0.00 0.00 0.00 0.00 0.00 0.00 0.00 0.00 0.00 0.00 0.00 0.00 0.00 0.00 0.00 0.00 0.00 0.00 0.00 0.00 0.00 0.00 0.00 0.00 0.00 0.00 0.00 0.00 0.00 0.00 0.00 0.00 0.00 0.00 0.00 0.00 0.00 0.00 0.00
0.00 0.00 0.00 0.00 0.00 0.00 0.00 0.00 0.00 0.00 0.00 0.00 0.00 0.00 0.00 0.00 0.00 0.00 0.00 0.00 0.00 0.00 0.00 0.00 0.00 0.00 0.00 0.00 0.00 0.00 0.00 0.00 0.00 0.00 0.00 0.00 0.00 0.00 0.00 0.00 0.00 0.00 0.00 0.00
0.00 0.00 0.00 0.00 0.00 0.00 0.00 0.00 0.00 0.00 0.00 0.00 0.00 0.00 0.00 0.00 0.00 0.00 0.00 0.00 0.00 0.00 0.00 0.00 0.00 0.00 0.00 0.00 0.00 0.00 0.00 0.00 0.00 0.00 0.00 0.00 0.00 0.00 0.00 0.00 0.00 0.00 0.00 0.00
0.00 0.00 0.00 0.00 0.00 0.00 0.00 0.00 0.00 0.00 0.00 0.00 0.00 0.00 0.00 0.00 0.00 0.00 0.00 0.00 0.00 0.00 0.00 0.00 0.00 0.00 0.00 0.00 0.00 0.00 0.00 0.00 0.00 0.00 0.00 0.00 0.00 0.00 0.00 0.00 0.00 0.00 0.00 0.00
0.00 0.00 0.00 0.00 0.00 0.00 0.00 0.00 0.00 0.00 0.00 0.00 0.00 0.00 0.00 0.00 0.00 0.00 0.00 0.00 0.00 0.00 0.00 0.00 0.00 0.00 0.00 0.00 0.00 0.00 0.00 0.00 0.00 0.00 0.00 0.00 0.00 0.00 0.00 0.00 0.00 0.00 0.00 0.00
0.00 0.00 0.00 0.00 0.00 0.00 0.00 0.00 0.00 0.00 0.00 0.00 0.00 0.00 0.00 0.00 0.00 0.00 0.00 0.00 0.00 0.00 0.00 0.00 0.00 0.00 0.00 0.00 0.00 0.00 0.00 0.00 0.00 0.00 0.00 0.00 0.00 0.00 0.00 0.00 0.00 0.00 0.00 0.00
0.00 0.00 0.00 0.00 0.00 0.00 0.00 0.00 0.00 0.00 0.00 0.00 0.00 0.00 0.00 0.00 0.00 0.00 0.00 0.00 0.00 0.00 0.00 0.00 0.00 0.00 0.00 0.00 0.00 0.00 0.00 0.00 0.00 0.00 0.00 0.00 0.00 0.00 0.00 0.00 0.00 0.00 0.00 0.00
0.00 0.00 0.00 0.00 0.00 0.00 0.00 0.00 0.00 0.00 0.00 0.00 0.00 0.00 0.00 0.00 0.00 0.00 0.00 0.00 0.00 0.00 0.00 0.00 0.00 0.00 0.00 0.00 0.00 0.00 0.00 0.00 0.00 0.00 0.00 0.00 0.00 0.00 0.00 0.00 0.00 0.00 0.00 0.00
0.00 0.00 0.00 0.00 0.00 0.00 0.00 0.00 0.00 0.00 0.00 0.00 0.00 0.00 0.00 0.00 0.00 0.00 0.00 0.00 0.00 0.00 0.00 0.00 0.00 0.00 0.00 0.00 0.00 0.00 0.00 0.00 0.00 0.00 0.00 0.00 0.00 0.00 0.00 0.00 0.00 0.00 0.00 0.00
MSLP
1009.46 1009.12 1008.66 1008.12 1007.72 1007.52 1007.54 1007.41 1007.21 1006.09 1005.45 1004.50 1004.58 1004.68 1005.02 1004.62 1004.09 1003.80 1004.11 1004.29 1004.81 1005.12 1004.78 1005.03 1005.01 1005.29 1005.71 1005.51 1005.38 1005.06 1005.11 1005.64 1005.98 1006.33 1006.47 1006.71 1007.02 1007.27 1007.48 1007.80 1007.93 1008.14 1008.45 1008.66
1009.96 1009.22 1008.47 1007.76 1006.98 1006.45 1006.31 1006.52 1006.64 1006.12 1004.95 1004.24 1004.19 1004.24 1005.12 1005.40 1004.92 1005.23 1005.79 1006.24 1007.12 1007.14 1005.87 1006.31 1006.42 1006.46 1006.89 1006.83 1006.54 1006.45 1006.42 1006.43 1006.34 1006.31 1006.34 1006.28 1006.59 1006.90 1006.91 1006.93 1007.08 1007.49 1007.55 1007.81
1010.57 1009.86 1008.77 1007.45 1006.26 1005.92 1005.43 1005.71 1005.92 1005.72 1005.16 1004.66 1004.60 1004.81 1005.35 1005.96 1006.24 1006.98 1007.65 1008.29 1008.75 1008.57 1008.25 1008.56 1007.79 1007.37 1008.22 1008.39 1008.17 1007.88 1007.85 1007.75 1007.73 1007.61 1007.28 1007.09 1006.79 1006.48 1006.36 1006.35 1006.62 1006.68 1006.74 1006.92
1011.13 1010.42 1009.07 1006.76 1005.70 1005.05 1004.75 1004.78 1005.12 1005.01 1005.09 1005.14 1005.63 1005.99 1006.25 1006.64 1007.67 1008.63 1009.38 1009.58 1009.90 1010.06 1009.97 1010.03 1008.90 1008.89 1009.43 1009.26 1009.12 1009.12 1008.88 1008.80 1008.70 1008.59 1008.31 1008.10 1007.75 1007.47 1007.21 1006.76 1006.23 1005.83 1005.70 1005.67
1011.69 1010.71 1008.85 1007.28 1005.74 1005.59 1005.39 1004.99 1004.98 1005.13 1005.18 1005.83 1006.62 1006.82 1008.54 1008.85 1009.33 1010.34 1010.59 1011.04 1011.58 1011.30 1011.44 1011.67 1010.08 1009.82 1009.84 1009.95 1009.93 1010.07 1010.01 1010.05 1009.94 1009.58 1009.18 1008.97 1008.74 1008.48 1008.06 1007.52 1006.90 1006.34 1005.39 1005.03
1011.99 1011.13 1009.16 1007.16 1005.96 1005.64 1005.18 1005.36 1005.35 1004.34 1004.75 1005.93 1006.79 1008.05 1010.17 1010.75 1011.32 1011.77 1011.99 1012.30 1012.43 1012.08 1012.70 1012.34 1011.56 1011.06 1010.88 1011.01 1011.15 1011.10 1011.13 1010.96 1010.81 1010.69 1010.28 1009.94 1009.52 1009.03 1008.70 1008.06 1007.47 1006.93 1006.26 1005.97
1011.89 1011.22 1009.24 1007.54 1006.88 1006.22 1006.73 1007.60 1006.66 1006.46 1006.55 1006.93 1008.14 1009.15 1011.05 1012.00 1012.56 1012.87 1013.29 1013.75 1013.72 1013.87 1014.01 1013.85 1013.07 1012.36 1012.23 1012.04 1011.92 1012.08 1011.99 1012.09 1011.81 1011.79 1011.27 1011.04 1010.43 1009.89 1009.39 1008.79 1008.16 1007.83 1007.63 1007.85
1011.65 1011.11 1009.61 1008.00 1007.53 1007.75 1008.34 1008.38 1008.43 1008.31 1008.82 1009.18 1010.19 1011.21 1012.19 1013.12 1013.70 1014.11 1014.23 1014.62 1014.76 1014.77 1015.05 1014.67 1014.27 1013.61 1013.38 1013.16 1013.01 1012.63 1012.75 1012.55 1012.48 1012.52 1012.06 1011.73 1011.31 1010.74 1010.03 1009.49 1009.10 1008.77 1008.65 1008.70
1011.44 1010.26 1009.76 1009.22 1009.32 1009.21 1009.07 1009.64 1010.17 1010.09 1010.63 1011.14 1011.83 1012.72 1013.67 1014.66 1014.92 1015.39 1015.92 1015.86 1015.63 1015.71 1015.86 1015.49 1015.32 1015.27 1014.76 1014.33 1013.57 1013.24 1013.42 1013.37 1013.19 1012.90 1012.84 1012.39 1011.87 1011.67 1011.23 1010.62 1010.10 1009.92 1009.80 1009.80
1010.61 1010.71 1010.72 1010.83 1010.78 1010.45 1010.75 1011.45 1012.04 1012.61 1012.48 1012.58 1013.37 1014.10 1015.12 1015.93 1016.28 1015.89 1016.74 1016.43 1016.20 1016.22 1016.30 1016.17 1015.93 1015.53 1014.95 1014.60 1014.08 1014.13 1013.91 1013.94 1013.86 1013.94 1013.86 1013.48 1013.08 1012.77 1012.35 1011.92 1011.68 1011.47 1011.28 1011.04
1012.02 1012.06 1012.06 1012.15 1012.20 1012.23 1012.51 1013.16 1013.63 1014.60 1015.07 1014.94 1015.24 1015.97 1016.64 1017.45 1018.12 1018.25 1018.13 1017.63 1017.53 1017.25 1017.09 1017.03 1016.85 1016.36 1015.79 1015.25 1014.70 1014.64 1014.79 1014.87 1015.08 1015.01 1014.72 1014.63 1014.66 1014.66 1014.31 1013.98 1013.17 1012.77 1012.55 1012.39
1013.74 1013.53 1013.36 1014.15 1013.91 1013.90 1013.94 1014.60 1015.12 1015.94 1016.57 1016.91 1016.82 1017.41 1018.10 1018.86 1019.72 1019.46 1019.30 1019.11 1018.57 1018.47 1018.54 1018.27 1018.10 1017.67 1017.07 1016.49 1015.95 1015.79 1015.84 1015.90 1015.84 1015.84 1015.71 1015.72 1015.73 1015.76 1015.75 1015.59 1015.13 1014.42 1014.08 1013.92
1014.87 1015.03 1014.99 1015.24 1015.47 1015.47 1015.72 1016.29 1016.73 1017.39 1017.86 1018.39 1018.77 1018.80 1019.32 1019.87 1020.13 1020.04 1019.89 1019.68 1019.70 1019.73 1019.59 1019.27 1018.89 1018.53 1018.26 1017.85 1017.36 1017.07 1016.87 1016.93 1017.01 1016.98 1016.80 1016.60 1016.63 1016.78 1016.99 1017.05 1016.65 1016.34 1015.91 1015.53
1016.16 1015.92 1016.04 1016.29 1016.71 1016.89 1017.07 1017.47 1017.73 1017.92 1018.85 1019.02 1019.81 1020.26 1020.64 1021.26 1021.35 1021.02 1021.09 1021.16 1021.04 1020.88 1020.52 1020.20 1019.90 1019.59 1019.25 1018.73 1018.31 1018.25 1018.22 1018.20 1018.19 1018.16 1018.07 1018.04 1018.05 1018.08 1018.02 1017.93 1017.74 1017.73 1017.60 1017.31
1017.33 1017.12 1017.23 1017.46 1017.62 1017.82 1018.00 1018.36 1018.62 1019.16 1019.78 1020.37 1020.83 1021.53 1021.74 1022.21 1022.32 1022.62 1022.75 1022.33 1022.07 1021.78 1021.59 1021.23 1020.91 1020.62 1020.18 1019.71 1019.45 1019.33 1019.19 1019.34 1019.36 1019.33 1019.30 1019.27 1019.23 1019.17 1019.24 1019.30 1019.34 1019.17 1018.67 1018.29
1018.40 1018.34 1018.34 1018.43 1018.73 1018.98 1019.17 1019.45 1019.90 1020.68 1021.08 1021.55 1022.02 1022.21 1022.63 1023.21 1023.67 1023.84 1023.58 1023.39 1023.05 1023.07 1022.78 1022.31 1021.87 1021.56 1021.05 1020.63 1020.41 1020.30 1020.21 1020.10 1020.08 1020.24 1020.41 1020.48 1020.48 1020.44 1020.50 1020.56 1020.55 1020.54 1020.39 1020.54
1019.24 1019.31 1019.31 1019.52 1019.76 1020.16 1020.50 1020.92 1021.37 1021.83 1022.19 1022.59 1022.96 1023.33 1023.81 1024.32 1024.30 1024.32 1024.41 1024.31 1024.23 1024.10 1023.86 1023.38 1023.05 1022.58 1022.01 1021.56 1021.29 1021.33 1021.18 1021.11 1021.06 1021.13 1021.43 1021.57 1021.66 1021.68 1021.63 1021.64 1021.90 1022.31 1022.76 1022.72
1020.80 1020.65 1020.59 1020.60 1020.92 1021.19 1021.52 1021.88 1022.41 1022.82 1023.34 1023.86 1024.33 1024.80 1024.99 1025.15 1025.44 1025.62 1025.67 1025.41 1025.24 1025.04 1024.90 1024.53 1024.05 1023.58 1022.96 1022.59 1022.30 1022.14 1022.00 1021.95 1021.98 1022.12 1022.17 1022.40 1022.60 1022.74 1023.08 1023.29 1023.46 1023.69 1023.97 1024.09
1021.75 1021.77 1021.80 1021.85 1022.03 1022.28 1022.69 1023.20 1023.59 1023.95 1024.40 1024.77 1025.06 1025.50 1025.87 1026.12 1026.25 1026.32 1026.19 1025.96 1025.79 1025.60 1025.48 1024.89 1024.39 1024.13 1023.93 1023.57 1023.32 1023.16 1023.06 1023.08 1023.04 1023.18 1023.34 1023.58 1023.86 1024.26 1024.43 1024.69 1024.95 1025.05 1025.19 1025.36
1022.82 1022.92 1023.07 1023.31 1023.49 1023.75 1024.12 1024.40 1024.60 1024.93 1025.31 1025.60 1025.99 1026.37 1026.70 1026.88 1026.95 1026.90 1026.82 1026.83 1026.84 1026.64 1026.14 1025.69 1025.30 1025.05 1024.87 1024.64 1024.30 1024.20 1024.22 1024.23 1024.29 1024.57 1024.74 1025.00 1025.25 1025.60 1025.74 1025.89 1026.06 1026.28 1026.51 1026.88
1024.38 1024.43 1024.53 1024.62 1024.78 1024.94 1025.09 1025.23 1025.45 1025.85 1026.25 1026.49 1026.84 1027.22 1027.46 1027.54 1027.50 1027.39 1027.39 1027.36 1027.41 1027.03 1026.67 1026.41 1026.19 1025.98 1025.80 1025.60 1025.40 1025.39 1025.34 1025.43 1025.52 1025.80 1026.19 1026.36 1026.62 1026.90 1027.13 1027.26 1027.49 1027.67 1027.88 1027.97
1025.07 1025.21 1025.35 1025.44 1025.50 1025.61 1025.66 1025.78 1025.98 1026.30 1026.65 1026.98 1027.27 1027.47 1027.64 1027.82 1027.81 1027.84 1027.90 1027.86 1027.84 1027.59 1027.39 1027.25 1027.17 1026.98 1026.79 1026.56 1026.48 1026.50 1026.62 1026.74 1026.92 1027.12 1027.41 1027.64 1027.94 1028.20 1028.57 1028.69 1028.79 1028.75 1028.78 1028.76
1025.62 1025.79 1025.91 1026.05 1026.18 1026.29 1026.30 1026.40 1026.55 1026.74 1027.04 1027.29 1027.56 1027.79 1027.90 1027.97 1027.99 1028.09 1028.26 1028.33 1028.23 1028.16 1028.09 1028.07 1027.96 1027.85 1027.80 1027.81 1027.84 1027.85 1027.87 1027.97 1028.17 1028.38 1028.58 1028.72 1028.91 1029.07 1029.18 1029.23 1029.23 1029.24 1029.30 1029.31
1026.02 1026.21 1026.40 1026.39 1026.47 1026.62 1026.80 1026.95 1027.06 1027.27 1027.46 1027.72 1028.01 1028.26 1028.25 1028.45 1028.54 1028.60 1028.78 1028.88 1028.90 1028.88 1028.88 1028.78 1028.76 1028.80 1028.88 1028.90 1028.92 1028.93 1028.98 1028.99 1029.03 1029.14 1029.31 1029.43 1029.54 1029.63 1029.69 1029.77 1029.80 1029.81 1029.86 1029.89
1026.10 1026.32 1026.45 1026.60 1026.58 1026.70 1026.88 1027.07 1027.26 1027.46 1027.76 1028.06 1028.29 1028.35 1028.50 1028.77 1029.02 1029.18 1029.22 1029.40 1029.49 1029.54 1029.67 1029.76 1029.62 1029.62 1029.81 1029.72 1029.68 1029.69 1029.72 1029.74 1029.78 1029.79 1029.86 1029.96 1030.08 1030.18 1030.25 1030.28 1030.28 1030.23 1030.35 1030.47
1025.98 1026.20 1026.37 1026.41 1026.52 1026.59 1026.80 1027.01 1027.31 1027.69 1028.12 1028.63 1028.98 1029.25 1029.15 1029.27 1029.42 1029.55 1029.66 1029.79 1029.93 1030.04 1030.19 1030.53 1030.81 1030.78 1030.42 1030.28 1030.27 1030.26 1030.27 1030.35 1030.33 1030.26 1030.32 1030.42 1030.47 1030.51 1030.65 1030.68 1030.72 1030.47 1030.15 1030.04
1026.27 1026.52 1026.75 1027.00 1027.13 1027.21 1027.34 1027.57 1027.86 1028.21 1028.43 1028.81 1029.38 1029.76 1029.66 1029.76 1029.84 1029.96 1030.09 1030.20 1030.27 1030.37 1030.46 1030.52 1030.07 1030.20 1030.34 1030.55 1030.52 1030.30 1030.04 1030.10 1030.19 1030.11 1030.34 1030.36 1030.22 1030.31 1030.31 1030.18 1030.11 1030.10 1030.08 1029.97
Thickness
5510 5513 5518 5522 5527 5530 5525 5527 5529 5541 5541 5558 5555 5560 5558 5562 5572 5583 5585 5590 5591 5591 5599 5601 5606 5606 5605 5609 5612 5619 5620 5616 5614 5612 5613 5612 5612 5611 5610 5608 5608 5607 5604 5604
5498 5511 5515 5519 5529 5532 5537 5533 5528 5530 5537 5555 5559 5564 5557 5559 5563 5568 5567 5566 5564 5566 5581 5580 5584 5588 5586 5591 5596 5598 5601 5605 5608 5608 5608 5609 5605 5606 5607 5607 5607 5603 5605 5602
5486 5492 5500 5508 5526 5527 5536 5534 5532 5530 5536 5549 5554 5557 5557 5555 5553 5548 5545 5542 5541 5545 5553 5556 5566 5573 5567 5569 5574 5579 5582 5585 5587 5588 5592 5593 5599 5604 5603 5603 5600 5602 5602 5600
5465 5482 5478 5518 5530 5534 5537 5542 5539 5544 5544 5544 5543 5543 5547 5548 5538 5529 5524 5524 5525 5524 5531 5536 5550 5552 5551 5555 5559 5561 5564 5566 5568 5571 5574 5578 5581 5583 5585 5589 5597 5600 5600 5600
5455 5471 5493 5511 5524 5520 5523 5531 5538 5536 5544 5536 5530 5532 5510 5513 5513 5506 5505 5503 5502 5505 5507 5510 5531 5535 5538 5540 5544 5544 5548 5548 5550 5553 5557 5559 5562 5564 5568 5573 5577 5582 5594 5597
5438 5457 5453 5504 5518 5518 5526 5523 5526 5544 5544 5537 5534 5523 5497 5493 5492 5490 5490 5489 5489 5494 5488 5494 5506 5516 5519 5521 5522 5523 5527 5531 5533 5534 5538 5541 5544 5548 5551 5557 5562 5566 5571 5572
5442 5449 5464 5497 5498 5509 5504 5504 5508 5516 5521 5526 5509 5508 5484 5478 5475 5478 5476 5474 5474 5473 5472 5475 5483 5493 5497 5502 5505 5507 5508 5507 5511 5512 5519 5520 5525 5530 5533 5539 5544 5545 5545 5542
5439 5442 5454 5481 5489 5496 5481 5482 5488 5495 5493 5491 5485 5479 5472 5466 5463 5461 5461 5459 5460 5462 5460 5464 5468 5476 5480 5483 5487 5491 5490 5492 5493 5493 5498 5501 5505 5510 5515 5519 5521 5523 5523 5521
5452 5453 5459 5463 5461 5462 5472 5472 5471 5476 5476 5473 5468 5462 5456 5448 5446 5445 5442 5442 5445 5446 5446 5450 5453 5455 5460 5465 5474 5477 5475 5475 5478 5480 5480 5484 5489 5490 5492 5497 5500 5500 5498 5496
5449 5453 5447 5441 5442 5448 5449 5445 5445 5445 5451 5454 5448 5443 5437 5431 5429 5433 5428 5432 5436 5438 5439 5440 5443 5446 5451 5452 5457 5458 5461 5462 5463 5462 5462 5464 5467 5470 5471 5472 5472 5472 5472 5471
5434 5432 5431 5429 5431 5432 5431 5428 5425 5418 5418 5423 5423 5418 5416 5412 5406 5405 5407 5414 5416 5419 5422 5423 5425 5429 5434 5438 5443 5445 5444 5444 5442 5443 5444 5444 5441 5439 5441 5441 5445 5446 5444 5443
5421 5411 5415 5408 5413 5414 5415 5410 5408 5405 5399 5397 5403 5401 5396 5390 5384 5388 5390 5393 5398 5400 5400 5403 5404 5408 5413 5418 5422 5425 5425 5424 5425 5424 5423 5422 5421 5418 5415 5414 5415 5417 5416 5414
5404 5394 5394 5393 5393 5397 5397 5394 5390 5384 5382 5379 5378 5381 5379 5376 5375 5378 5379 5381 5381 5382 5384 5387 5389 5392 5393 5396 5400 5402 5405 5404 5403 5402 5401 5402 5399 5396 5390 5388 5389 5389 5389 5388
5386 5390 5391 5385 5382 5383 5382 5380 5380 5378 5371 5370 5365 5362 5360 5356 5356 5361 5360 5360 5361 5363 5366 5368 5370 5372 5374 5377 5380 5380 5379 5378 5377 5376 5375 5374 5371 5369 5368 5366 5364 5361 5359 5358
5372 5377 5374 5372 5371 5371 5371 5369 5368 5364 5359 5355 5352 5347 5345 5340 5339 5338 5337 5342 5344 5345 5346 5349 5351 5352 5355 5358 5358 5358 5359 5355 5353 5352 5350 5348 5347 5345 5342 5339 5335 5334 5335 5334
5361 5361 5361 5358 5355 5353 5353 5354 5352 5345 5342 5340 5337 5336 5332 5326 5322 5320 5322 5323 5325 5323 5326 5328 5331 5332 5335 5336 5336 5335 5334 5333 5331 5328 5325 5322 5319 5317 5315 5312 5309 5306 5305 5300
5349 5350 5349 5345 5341 5336 5334 5331 5328 5325 5323 5321 5319 5317 5312 5307 5307 5306 5304 5304 5302 5301 5302 5305 5305 5307 5309 5311 5311 5309 5309 5307 5305 5302 5298 5295 5293 5290 5289 5287 5282 5276 5270 5268
5328 5328 5328 5331 5327 5325 5321 5318 5313 5309 5303 5299 5294 5290 5288 5288 5285 5282 5280 5280 5279 5279 5278 5279 5281 5282 5286 5287 5287 5286 5285 5283 5280 5277 5275 5272 5269 5266 5261 5258 5254 5251 5247 5243
5320 5318 5316 5316 5313 5310 5305 5298 5293 5289 5284 5280 5276 5272 5269 5266 5264 5262 5261 5261 5261 5261 5259 5261 5264 5263 5262 5264 5263 5262 5261 5259 5258 5255 5251 5247 5243 5239 5236 5232 5229 5226 5223 5219
5304 5302 5298 5293 5290 5286 5280 5276 5274 5269 5265 5262 5257 5253 5250 5247 5244 5243 5242 5240 5239 5239 5240 5240 5240 5240 5240 5240 5240 5239 5237 5235 5234 5230 5227 5223 5218 5213 5211 5208 5205 5202 5199 5193
5276 5274 5271 5268 5265 5263 5260 5257 5254 5249 5244 5241 5237 5232 5228 5226 5224 5223 5223 5222 5219 5220 5220 5220 5219 5218 5218 5218 5218 5215 5213 5211 5209 5204 5200 5197 5194 5190 5186 5184 5180 5177 5174 5171
5263 5262 5256 5254 5253 5248 5245 5241 5237 5232 5227 5222 5218 5214 5210 5207 5204 5203 5201 5200 5198 5197 5198 5197 5196 5195 5195 5196 5195 5193 5190 5187 5184 5181 5177 5174 5170 5166 5161 5159 5157 5154 5151 5149
5250 5247 5244 5237 5233 5229 5227 5223 5218 5215 5210 5205 5200 5196 5194 5192 5189 5184 5181 5180 5179 5177 5176 5174 5174 5173 5172 5171 5169 5167 5166 5163 5161 5157 5154 5151 5149 5146 5143 5141 5138 5136 5133 5131
5238 5234 5228 5223 5219 5216 5210 5206 5202 5196 5189 5186 5180 5176 5176 5169 5166 5166 5162 5158 5156 5155 5153 5152 5152 5151 5150 5148 5146 5144 5142 5140 5138 5137 5135 5133 5129 5127 5125 5122 5120 5117 5115 5112
5227 5220 5216 5210 5208 5202 5195 5189 5184 5179 5173 5168 5162 5158 5155 5150 5144 5142 5140 5138 5136 5134 5131 5131 5130 5129 5128 5126 5124 5122 5119 5118 5117 5115 5113 5112 5109 5107 5104 5101 5099 5096 5094 5092
5219 5210 5203 5197 5192 5186 5180 5174 5166 5158 5151 5141 5136 5130 5128 5126 5124 5120 5118 5116 5114 5113 5110 5108 5108 5106 5105 5104 5102 5101 5100 5099 5098 5096 5095 5094 5092 5089 5086 5084 5082 5081 5080 5078
5201 5192 5184 5176 5168 5162 5156 5150 5143 5135 5128 5119 5112 5107 5106 5103 5101 5100 5097 5094 5092 5091 5092 5091 5089 5088 5087 5085 5084 5084 5085 5084 5083 5081 5080 5079 5078 5077 5075 5074 5072 5071 5069 5067